Chicago Executive, IL

10:04 AM CST on December 09, 2019 (GMT -0600)
Chicago Executive

Weather History for KPWK - October, 2019

Change the Weather History Date:

Wednesday, October 2, 2019

  Actual Average Record
Temperature  
Mean Temperature 64 °F 57 °F  
Max Temperature 66 °F 67 °F 84 °F (2005)
Min Temperature 58 °F 47 °F 30 °F (2003)
Degree Days  
Heating Degree Days 2 9  
Month to date heating degree days 1 17  
Since 1 July heating degree days 8 129  
Cooling Degree Days 0 1  
Month to date cooling degree days 13 2  
Year to date cooling degree days 996 780  
Growing Degree Days 14 (Base 50)    
Moisture  
Dew Point 58 °F    
Average Humidity 90    
Maximum Humidity 93    
Minimum Humidity 78    
Precipitation  
Precipitation 1.08 in 0.13 in 3.06 in (2006)
Month to date precipitation 1.09 0.26  
Year to date precipitation 37.78 25.95  
Sea Level Pressure  
Sea Level Pressure 29.93 in    
Wind  
Wind Speed 8 mph ()    
Max Wind Speed 20 mph    
Max Gust Speed 28 mph    
Visibility 6.5 miles    
Events Rain , Thunderstorm    
T = Trace of Precipitation, MM = Missing Value Source: Averaged Metar Reports

Daily Weather History Graph

Daily Weather History Graph

Search for Another Location

Airport or City:

Astronomy

Oct. 02, 2019 Rise Set
Actual Time 6:49 AM CDT 6:31 PM CDT
Civil Twilight 6:21 AM CDT 6:59 PM CDT
Nautical Twilight 5:49 AM CDT 7:32 PM CDT
Astronomical Twilight 5:16 AM CDT 8:04 PM CDT
Moon 11:18 AM CDT (10/2) 9:21 PM CDT (10/2)
Length of Visible Light 12h 38m
Length of Day
11h 42m
Waxing Crescent, 20% of the Moon is Illuminated
Oct 2
Waxing Crescent
Oct 5
First Quarter
Oct 13
Full
Oct 21
Last Quarter
Oct 27
New

Hourly Weather History & Observations

Time (CDT) Temp. Dew Point Humidity Pressure Visibility Wind Dir Wind Speed Gust Speed Precip Events Conditions
12:39 AM 68.0 °F 61.0 °F 78% 29.92 in 10.0 mi NE 11.5 mph - N/A   Overcast
12:47 AM 68.0 °F 62.6 °F 83% 29.93 in 10.0 mi North 8.1 mph - N/A   Overcast
12:52 AM 69.1 °F 62.1 °F 78% 29.91 in 10.0 mi NNE 8.1 mph - 0.00 in Rain Light Rain
1:35 AM 64.0 °F 61.0 °F 90% 29.87 in 10.0 mi NE 9.2 mph 18.4 mph 0.03 in Rain Light Rain
1:49 AM 64.4 °F 60.8 °F 88% 29.90 in 10.0 mi NE 3.5 mph - 0.03 in   Mostly Cloudy
1:52 AM 64.0 °F 61.0 °F 90% 29.88 in 10.0 mi ENE 3.5 mph - 0.03 in   Mostly Cloudy
2:14 AM 63.0 °F 61.0 °F 93% 29.88 in 10.0 mi East 3.5 mph - N/A   Overcast
2:52 AM 63.0 °F 60.1 °F 90% 29.86 in 10.0 mi East 3.5 mph - 0.01 in   Overcast
3:35 AM 62.1 °F 59.0 °F 90% 29.88 in 9.0 mi ENE 6.9 mph - 0.01 in Rain Light Rain
3:52 AM 61.0 °F 57.9 °F 90% 29.87 in 9.0 mi NE 4.6 mph - 0.03 in Rain Light Rain
4:52 AM 61.0 °F 59.0 °F 93% 29.87 in 8.0 mi NE 8.1 mph - 0.01 in   Overcast
5:41 AM 61.0 °F 57.9 °F 90% 29.89 in 10.0 mi NNE 9.2 mph - 0.05 in Rain Light Rain
5:52 AM 61.0 °F 57.9 °F 90% 29.88 in 10.0 mi North 6.9 mph - 0.05 in   Overcast
6:52 AM 59.0 °F 55.9 °F 90% 29.89 in 9.0 mi NNE 11.5 mph - 0.00 in Rain Light Rain
7:52 AM 59.0 °F 55.9 °F 90% 29.91 in 4.0 mi North 11.5 mph 27.6 mph 0.08 in Rain Light Rain
8:02 AM 59.0 °F 55.9 °F 90% 29.91 in 2.5 mi NNE 12.7 mph 19.6 mph 0.01 in Rain Light Rain
8:52 AM 59.0 °F 55.9 °F 90% 29.91 in 2.5 mi NNE 17.3 mph 24.2 mph 0.03 in Rain Light Rain
9:52 AM 59.0 °F 55.9 °F 90% 29.93 in 2.5 mi NNE 13.8 mph - 0.00 in   Overcast
10:52 AM 59.0 °F 55.9 °F 90% 29.94 in 2.5 mi NNE 11.5 mph 19.6 mph 0.01 in   Overcast
11:01 AM 59.0 °F 55.9 °F 90% 29.95 in 1.0 mi NNE 13.8 mph 21.9 mph N/A   Overcast
11:52 AM 60.1 °F 57.0 °F 90% 29.96 in 1.0 mi North 13.8 mph - 0.00 in   Overcast
12:52 PM 60.1 °F 57.0 °F 90% 29.96 in 2.0 mi North 13.8 mph 21.9 mph 0.01 in   Overcast
1:52 PM 61.0 °F 57.0 °F 87% 29.95 in 2.0 mi NNE 10.4 mph 19.6 mph N/A   Overcast
2:52 PM 60.1 °F 57.0 °F 90% 29.97 in 2.0 mi North 10.4 mph - N/A   Overcast
3:13 PM 60.1 °F 57.0 °F 90% 29.97 in 3.0 mi North 12.7 mph 21.9 mph N/A   Overcast
3:52 PM 60.1 °F 57.0 °F 90% 29.99 in 3.0 mi North 6.9 mph - 0.00 in   Overcast
4:52 PM 60.1 °F 57.0 °F 90% 29.98 in 6.0 mi NNE 10.4 mph - N/A   Overcast
5:52 PM 59.0 °F 55.9 °F 90% 29.99 in 5.0 mi NNE 8.1 mph - 0.04 in Rain Light Rain
6:44 PM 59.0 °F 55.9 °F 90% 29.96 in 10.0 mi NNE 5.8 mph - 0.03 in Rain Light Rain
6:52 PM 59.0 °F 55.9 °F 90% 29.96 in 6.0 mi NNE 4.6 mph - 0.03 in Rain Light Rain
7:07 PM 59.0 °F 55.9 °F 90% 29.96 in 10.0 mi NNE 3.5 mph - 0.00 in Rain Light Rain
7:52 PM 59.0 °F 57.0 °F 93% 29.98 in 10.0 mi North 4.6 mph - 0.00 in   Overcast
8:02 PM 60.1 °F 57.0 °F 90% 29.97 in 10.0 mi North 5.8 mph - N/A   Overcast
8:52 PM 60.1 °F 57.9 °F 93% 29.95 in 4.0 mi NNE 6.9 mph - 0.01 in   Overcast
9:52 PM 60.1 °F 57.9 °F 93% 29.94 in 4.0 mi NE 6.9 mph - N/A   Overcast
10:05 PM 60.1 °F 57.9 °F 93% 29.94 in 2.5 mi NNE 8.1 mph - N/A   Overcast
10:34 PM 60.1 °F 57.9 °F 93% 29.92 in 4.0 mi NE 11.5 mph 16.1 mph 0.14 in Rain Rain
10:52 PM 60.1 °F 57.9 °F 93% 29.92 in 4.0 mi ENE 6.9 mph - 0.22 in Rain Heavy Rain
11:32 PM 61.0 °F 57.9 °F 90% 29.93 in 6.0 mi NE 6.9 mph - 0.17 in Rain , Thunderstorm Rain
11:47 PM 60.8 °F 57.2 °F 88% 29.93 in 10.0 mi NE 8.1 mph - 0.18 in Rain Light Rain
11:52 PM 61.0 °F 57.9 °F 90% 29.93 in 10.0 mi Variable 4.6 mph - 0.19 in Rain Light Rain